Tracking 30922 objects as of 2-Jul-2025
HD Live streaming from Space Station
objects crossing your sky now

STARLINK-11431

Track STARLINK-11431 now!
10-day predictions
STARLINK-11431 is classified as:


NORAD ID: 62890
Int'l Code: 2025-024M
Perigee: 361.7 km
Apogee: 365.4 km
Inclination: 43.0 °
Period: 91.7 minutes
Semi major axis: 6734 km
RCS: Unknown
Launch date: February 4, 2025
Source: United States (US)
Launch site: AIR FORCE EASTERN TEST RANGE (AFETR)
Your satellite tracking list
Your tracking list is empty




NASA's NSSDC Master Catalog

Two Line Element Set (TLE):
1 62890U 25024M   25182.61249574  .00148312  00000-0  11370-2 0  9997
2 62890  43.0000 255.3174 0002745 279.9853  80.0705 15.70875881 24378
Source of the keplerian elements: AFSPC